SWA998 KDAL-KELP

Flight info

Callsign SWA998
Flight time 1h 28m
Altitude 34000
Route KKITY5 CIKAN BGS LIFFT SAMMR3
Aircraft B738/M-SADE2E3GIJ4RWZ/LB1D1

Departure

Time 2026-04-27 23:22
Airport Dallas Love Field (KDAL)

Arrival

Time 2026-04-28 00:50
Airport El Paso International Airport (KELP)
Time Latitude Longitude Altitude Speed Heading
2026-04-27 23:00 32.84646 -96.84991 481 ft 0 kts 181°
2026-04-27 23:13 32.84650 -96.84991 473 ft 2 kts 181°
2026-04-27 23:14 32.84666 -96.84991 478 ft 2 kts 180°
2026-04-27 23:14 32.84683 -96.84991 478 ft 2 kts 180°
2026-04-27 23:14 32.84699 -96.84990 475 ft 2 kts 193°
2026-04-27 23:14 32.84713 -96.84982 476 ft 2 kts 256°
2026-04-27 23:15 32.84714 -96.84973 473 ft 0 kts 271°
2026-04-27 23:16 32.84715 -96.84987 476 ft 7 kts 276°
2026-04-27 23:16 32.84727 -96.85055 478 ft 9 kts 282°
2026-04-27 23:16 32.84739 -96.85125 477 ft 9 kts 282°
2026-04-27 23:17 32.84745 -96.85194 481 ft 9 kts 271°
2026-04-27 23:17 32.84746 -96.85269 479 ft 9 kts 275°
2026-04-27 23:17 32.84783 -96.85338 476 ft 11 kts 304°
2026-04-27 23:17 32.84792 -96.85425 477 ft 12 kts 267°
2026-04-27 23:18 32.84783 -96.85524 481 ft 12 kts 260°
2026-04-27 23:18 32.84764 -96.85629 481 ft 14 kts 257°
2026-04-27 23:18 32.84768 -96.85734 476 ft 13 kts 308°
2026-04-27 23:18 32.84836 -96.85814 481 ft 14 kts 316°
2026-04-27 23:19 32.84911 -96.85901 481 ft 16 kts 315°
2026-04-27 23:19 32.84991 -96.85994 481 ft 16 kts 315°
2026-04-27 23:19 32.85064 -96.86080 481 ft 15 kts 316°
2026-04-27 23:19 32.85129 -96.86155 481 ft 12 kts 315°
2026-04-27 23:20 32.85184 -96.86219 481 ft 10 kts 315°
2026-04-27 23:20 32.85182 -96.86262 477 ft 5 kts 234°
2026-04-27 23:20 32.85158 -96.86298 480 ft 6 kts 226°
2026-04-27 23:20 32.85119 -96.86317 478 ft 6 kts 163°
2026-04-27 23:21 32.85079 -96.86279 481 ft 17 kts 134°
2026-04-27 23:21 32.84824 -96.85985 478 ft 84 kts 136°
2026-04-27 23:21 32.84260 -96.85335 479 ft 139 kts 136°
2026-04-27 23:21 32.83465 -96.84422 594 ft 172 kts 138°
2026-04-27 23:22 32.82638 -96.83401 1158 ft 177 kts 136°
2026-04-27 23:22 32.81721 -96.82252 1339 ft 204 kts 137°
2026-04-27 23:22 32.80683 -96.80968 1525 ft 222 kts 136°
2026-04-27 23:22 32.79597 -96.79618 1991 ft 232 kts 136°
2026-04-27 23:23 32.78437 -96.78177 2332 ft 251 kts 136°
2026-04-27 23:23 32.77206 -96.76642 2872 ft 259 kts 137°
2026-04-27 23:23 32.75946 -96.75067 3521 ft 266 kts 136°
2026-04-27 23:23 32.74624 -96.73502 4170 ft 272 kts 139°
2026-04-27 23:24 32.73256 -96.71932 4982 ft 268 kts 139°
2026-04-27 23:24 32.71752 -96.70760 6026 ft 255 kts 165°
2026-04-27 23:24 32.69994 -96.70558 6603 ft 260 kts 193°
2026-04-27 23:24 32.68332 -96.71405 7168 ft 264 kts 220°
2026-04-27 23:25 32.67200 -96.73051 7932 ft 262 kts 244°
2026-04-27 23:25 32.66718 -96.75120 8778 ft 262 kts 263°
2026-04-27 23:25 32.66664 -96.77281 9664 ft 262 kts 268°
2026-04-27 23:25 32.66699 -96.79447 10410 ft 266 kts 269°
2026-04-27 23:26 32.66750 -96.81743 10640 ft 290 kts 269°
2026-04-27 23:26 32.66803 -96.84230 10815 ft 312 kts 269°
2026-04-27 23:26 32.66856 -96.86896 10994 ft 332 kts 269°
2026-04-27 23:26 32.66907 -96.89720 11134 ft 350 kts 269°
2026-04-27 23:27 32.66957 -96.92652 11502 ft 359 kts 269°
2026-04-27 23:27 32.67004 -96.95623 12082 ft 361 kts 268°
2026-04-27 23:27 32.67049 -96.98605 12708 ft 362 kts 268°
2026-04-27 23:27 32.67091 -97.01612 13320 ft 365 kts 268°
2026-04-27 23:28 32.67130 -97.04592 13878 ft 367 kts 268°
2026-04-27 23:28 32.67169 -97.07642 14421 ft 370 kts 268°
2026-04-27 23:28 32.67206 -97.10699 15009 ft 371 kts 268°
2026-04-27 23:28 32.67243 -97.13776 15603 ft 373 kts 268°
2026-04-27 23:29 32.67279 -97.16867 16157 ft 376 kts 268°
2026-04-27 23:29 32.67315 -97.19982 16701 ft 378 kts 268°
2026-04-27 23:29 32.67349 -97.23082 17229 ft 381 kts 268°
2026-04-27 23:29 32.67384 -97.26228 17795 ft 383 kts 268°
2026-04-27 23:30 32.67417 -97.29406 18303 ft 386 kts 269°
2026-04-27 23:30 32.67450 -97.32603 18654 ft 391 kts 269°
2026-04-27 23:30 32.67483 -97.35804 19377 ft 386 kts 269°
2026-04-27 23:30 32.67515 -97.39016 19690 ft 393 kts 269°
2026-04-27 23:31 32.67546 -97.42288 20029 ft 399 kts 269°
2026-04-27 23:31 32.67577 -97.45596 20475 ft 401 kts 269°
2026-04-27 23:31 32.67607 -97.48911 20944 ft 402 kts 269°
2026-04-27 23:31 32.67637 -97.52243 21403 ft 405 kts 269°
2026-04-27 23:32 32.67666 -97.55599 21833 ft 407 kts 269°
2026-04-27 23:32 32.67694 -97.58974 22256 ft 410 kts 269°
2026-04-27 23:32 32.67721 -97.62324 22668 ft 412 kts 269°
2026-04-27 23:32 32.67748 -97.65735 23080 ft 414 kts 269°
2026-04-27 23:33 32.67774 -97.69170 23463 ft 416 kts 269°
2026-04-27 23:33 32.67798 -97.72615 23703 ft 418 kts 269°
2026-04-27 23:33 32.67689 -97.76063 24066 ft 417 kts 264°
2026-04-27 23:33 32.67430 -97.79493 24437 ft 417 kts 264°
2026-04-27 23:34 32.67136 -97.82922 24788 ft 418 kts 263°
2026-04-27 23:34 32.66841 -97.86323 25111 ft 419 kts 264°
2026-04-27 23:34 32.66548 -97.89782 25426 ft 421 kts 264°
2026-04-27 23:34 32.66265 -97.93245 25759 ft 421 kts 264°
2026-04-27 23:35 32.65987 -97.96713 26079 ft 422 kts 264°
2026-04-27 23:35 32.65713 -98.00174 26453 ft 421 kts 264°
2026-04-27 23:35 32.65440 -98.03628 26809 ft 419 kts 264°
2026-04-27 23:35 32.65167 -98.07078 27112 ft 418 kts 264°
2026-04-27 23:36 32.64894 -98.10506 27462 ft 416 kts 264°
2026-04-27 23:36 32.64622 -98.13917 27853 ft 414 kts 264°
2026-04-27 23:36 32.64354 -98.17260 28274 ft 410 kts 264°
2026-04-27 23:36 32.64083 -98.20626 28709 ft 408 kts 264°
2026-04-27 23:37 32.63813 -98.23969 29099 ft 406 kts 264°
2026-04-27 23:37 32.63544 -98.27297 29524 ft 403 kts 264°
2026-04-27 23:37 32.63276 -98.30596 29990 ft 400 kts 265°
2026-04-27 23:37 32.63010 -98.33866 30374 ft 397 kts 265°
2026-04-27 23:38 32.62744 -98.37117 30747 ft 394 kts 265°
2026-04-27 23:38 32.62480 -98.40344 31125 ft 392 kts 264°
2026-04-27 23:38 32.62215 -98.43563 31441 ft 391 kts 265°
2026-04-27 23:38 32.61950 -98.46781 31761 ft 390 kts 265°
2026-04-27 23:39 32.61686 -98.49979 32119 ft 389 kts 265°
2026-04-27 23:39 32.61422 -98.53161 32461 ft 387 kts 265°
2026-04-27 23:39 32.61162 -98.56298 32783 ft 386 kts 265°
2026-04-27 23:39 32.60898 -98.59464 33134 ft 384 kts 265°
2026-04-27 23:40 32.60634 -98.62610 33517 ft 382 kts 265°
2026-04-27 23:40 32.60372 -98.65741 33824 ft 382 kts 265°
2026-04-27 23:40 32.59840 -98.72057 33829 ft 384 kts 264°
2026-04-27 23:41 32.59308 -98.78321 33842 ft 379 kts 264°
2026-04-27 23:41 32.58782 -98.84496 33843 ft 377 kts 264°
2026-04-27 23:42 32.58251 -98.90686 33842 ft 377 kts 264°
2026-04-27 23:42 32.57720 -98.96836 33843 ft 377 kts 264°
2026-04-27 23:43 32.57180 -99.03058 33829 ft 377 kts 264°
2026-04-27 23:43 32.56643 -99.09213 33838 ft 378 kts 264°
2026-04-27 23:44 32.56098 -99.15429 33814 ft 379 kts 264°
2026-04-27 23:44 32.55549 -99.21646 33799 ft 379 kts 264°
2026-04-27 23:45 32.54997 -99.27871 33791 ft 379 kts 264°
2026-04-27 23:45 32.54447 -99.34092 33787 ft 379 kts 264°
2026-04-27 23:46 32.54052 -99.40295 33817 ft 379 kts 266°
2026-04-27 23:46 32.53707 -99.46540 33822 ft 379 kts 265°
2026-04-27 23:47 32.53347 -99.52776 33844 ft 379 kts 265°
2026-04-27 23:47 32.52973 -99.59013 33852 ft 379 kts 265°
2026-04-27 23:48 32.52594 -99.65215 33862 ft 379 kts 265°
2026-04-27 23:48 32.52209 -99.71451 33863 ft 379 kts 265°
2026-04-27 23:49 32.51884 -99.76679 33823 ft 379 kts 265°
2026-04-27 23:49 32.51496 -99.82876 33830 ft 379 kts 265°
2026-04-27 23:50 32.51102 -99.89117 33833 ft 379 kts 265°
2026-04-27 23:50 32.50705 -99.95358 33823 ft 379 kts 265°
2026-04-27 23:51 32.50308 -100.01539 33813 ft 378 kts 265°
2026-04-27 23:51 32.49905 -100.07773 33796 ft 378 kts 265°
2026-04-27 23:52 32.49499 -100.14007 33872 ft 381 kts 265°
2026-04-27 23:52 32.49297 -100.17095 34129 ft 379 kts 265°
2026-04-27 23:52 32.49093 -100.20199 34448 ft 377 kts 265°
2026-04-27 23:53 32.48889 -100.23294 34704 ft 376 kts 265°
2026-04-27 23:53 32.48686 -100.26378 34922 ft 376 kts 265°
2026-04-27 23:53 32.48480 -100.29467 35176 ft 375 kts 265°
2026-04-27 23:53 32.48273 -100.32536 35614 ft 372 kts 265°
2026-04-27 23:54 32.48043 -100.35584 35885 ft 371 kts 265°
2026-04-27 23:54 32.47801 -100.38601 35895 ft 374 kts 264°
2026-04-27 23:54 32.47300 -100.44739 35908 ft 373 kts 264°
2026-04-27 23:55 32.46803 -100.50842 35916 ft 371 kts 264°
2026-04-27 23:55 32.46313 -100.56877 35917 ft 370 kts 264°
2026-04-27 23:56 32.45818 -100.62952 35881 ft 370 kts 264°
2026-04-27 23:56 32.45320 -100.69038 35863 ft 372 kts 264°
2026-04-27 23:57 32.44818 -100.75142 35824 ft 373 kts 264°
2026-04-27 23:57 32.44314 -100.81231 35804 ft 374 kts 264°
2026-04-27 23:58 32.43803 -100.87367 35807 ft 375 kts 264°
2026-04-27 23:58 32.43287 -100.93523 35806 ft 375 kts 264°
2026-04-27 23:59 32.42773 -100.99625 35803 ft 375 kts 264°
2026-04-27 23:59 32.42252 -101.05772 35794 ft 375 kts 264°
2026-04-28 00:00 32.41728 -101.11913 35781 ft 375 kts 264°
2026-04-28 00:00 32.41202 -101.18053 35771 ft 375 kts 264°
2026-04-28 00:01 32.40672 -101.24197 35754 ft 375 kts 264°
2026-04-28 00:01 32.40139 -101.30343 35756 ft 375 kts 264°
2026-04-28 00:02 32.39606 -101.36456 35762 ft 375 kts 264°
2026-04-28 00:02 32.39067 -101.42606 35762 ft 376 kts 264°
2026-04-28 00:03 32.38527 -101.48725 35763 ft 376 kts 264°
2026-04-28 00:03 32.37817 -101.54858 35763 ft 376 kts 262°
2026-04-28 00:04 32.36624 -101.64051 35764 ft 376 kts 262°
2026-04-28 00:05 32.35841 -101.70171 35788 ft 375 kts 262°
2026-04-28 00:05 32.35070 -101.76249 35773 ft 372 kts 262°
2026-04-28 00:06 32.34306 -101.82283 35804 ft 370 kts 262°
2026-04-28 00:06 32.33544 -101.88283 35786 ft 368 kts 262°
2026-04-28 00:07 32.32788 -101.94218 35797 ft 367 kts 262°
2026-04-28 00:07 32.32025 -102.00185 35810 ft 367 kts 262°
2026-04-28 00:08 32.31257 -102.06163 35821 ft 367 kts 262°
2026-04-28 00:08 32.30490 -102.12115 35825 ft 366 kts 262°
2026-04-28 00:09 32.29720 -102.18066 35798 ft 366 kts 262°
2026-04-28 00:09 32.28951 -102.23979 35790 ft 366 kts 262°
2026-04-28 00:10 32.28176 -102.29927 35801 ft 366 kts 262°
2026-04-28 00:10 32.27397 -102.35880 35802 ft 367 kts 262°
2026-04-28 00:11 32.26614 -102.41838 35788 ft 367 kts 262°
2026-04-28 00:11 32.25828 -102.47801 35803 ft 367 kts 262°
2026-04-28 00:12 32.25038 -102.53770 35804 ft 368 kts 262°
2026-04-28 00:12 32.24249 -102.59705 35799 ft 368 kts 262°
2026-04-28 00:13 32.23452 -102.65688 35801 ft 369 kts 262°
2026-04-28 00:13 32.22650 -102.71672 35799 ft 369 kts 262°
2026-04-28 00:14 32.21846 -102.77654 35816 ft 368 kts 262°
2026-04-28 00:14 32.21042 -102.83623 35799 ft 367 kts 262°
2026-04-28 00:15 32.20244 -102.89520 35789 ft 365 kts 262°
2026-04-28 00:15 32.19441 -102.95438 35787 ft 364 kts 261°
2026-04-28 00:16 32.18638 -103.01330 35789 ft 363 kts 261°
2026-04-28 00:16 32.17832 -103.07222 35782 ft 363 kts 261°
2026-04-28 00:17 32.17025 -103.13098 35780 ft 363 kts 261°
2026-04-28 00:17 32.16216 -103.18973 35784 ft 362 kts 261°
2026-04-28 00:18 32.15412 -103.24789 35784 ft 361 kts 261°
2026-04-28 00:18 32.14599 -103.30647 35779 ft 361 kts 261°
2026-04-28 00:19 32.13785 -103.36496 35775 ft 361 kts 261°
2026-04-28 00:19 32.12969 -103.42340 35779 ft 361 kts 261°
2026-04-28 00:20 32.12150 -103.48182 35771 ft 361 kts 261°
2026-04-28 00:20 32.11329 -103.54022 35769 ft 361 kts 261°
2026-04-28 00:21 32.10505 -103.59858 35769 ft 361 kts 261°
2026-04-28 00:21 32.09682 -103.65667 35763 ft 361 kts 261°
2026-04-28 00:22 32.08853 -103.71504 35762 ft 361 kts 261°
2026-04-28 00:22 32.08024 -103.77319 35760 ft 361 kts 261°
2026-04-28 00:23 32.07188 -103.83156 35751 ft 361 kts 261°
2026-04-28 00:23 32.06350 -103.88994 35758 ft 361 kts 261°
2026-04-28 00:24 32.05509 -103.94834 35755 ft 360 kts 261°
2026-04-28 00:24 32.04668 -104.00654 35758 ft 360 kts 261°
2026-04-28 00:25 32.03825 -104.06469 35762 ft 360 kts 261°
2026-04-28 00:25 32.02984 -104.12248 35779 ft 360 kts 261°
2026-04-28 00:26 32.02136 -104.18062 35785 ft 360 kts 261°
2026-04-28 00:26 32.01286 -104.23866 35785 ft 359 kts 261°
2026-04-28 00:27 32.00434 -104.29668 35789 ft 359 kts 261°
2026-04-28 00:27 31.99581 -104.35458 35780 ft 359 kts 260°
2026-04-28 00:28 31.98749 -104.41270 35787 ft 359 kts 262°
2026-04-28 00:28 31.98171 -104.47118 35791 ft 359 kts 263°
2026-04-28 00:29 31.97601 -104.52938 35803 ft 359 kts 263°
2026-04-28 00:29 31.97006 -104.58789 35804 ft 359 kts 263°
2026-04-28 00:29 31.96706 -104.61712 35634 ft 360 kts 263°
2026-04-28 00:30 31.96404 -104.64651 35000 ft 359 kts 263°
2026-04-28 00:30 31.96106 -104.67556 34410 ft 356 kts 262°
2026-04-28 00:30 31.95807 -104.70459 33708 ft 358 kts 262°
2026-04-28 00:30 31.95506 -104.73375 32904 ft 359 kts 262°
2026-04-28 00:31 31.95208 -104.76266 32131 ft 360 kts 262°
2026-04-28 00:31 31.94903 -104.79205 31372 ft 364 kts 262°
2026-04-28 00:31 31.94595 -104.82175 30517 ft 366 kts 261°
2026-04-28 00:31 31.94285 -104.85150 29688 ft 367 kts 261°
2026-04-28 00:32 31.93972 -104.88156 28674 ft 371 kts 261°
2026-04-28 00:32 31.93658 -104.91161 28045 ft 367 kts 261°
2026-04-28 00:32 31.93346 -104.94147 27384 ft 365 kts 261°
2026-04-28 00:32 31.93041 -104.97060 26751 ft 362 kts 260°
2026-04-28 00:33 31.92733 -104.99988 26137 ft 358 kts 260°
2026-04-28 00:33 31.92428 -105.02882 25530 ft 356 kts 260°
2026-04-28 00:33 31.92118 -105.05803 24937 ft 365 kts 260°
2026-04-28 00:33 31.91797 -105.08817 24299 ft 374 kts 260°
2026-04-28 00:34 31.91475 -105.11846 23644 ft 371 kts 260°
2026-04-28 00:34 31.91158 -105.14844 22942 ft 367 kts 260°
2026-04-28 00:34 31.90844 -105.17809 22260 ft 363 kts 260°
2026-04-28 00:34 31.90532 -105.20741 21614 ft 359 kts 260°
2026-04-28 00:35 31.90223 -105.23635 20995 ft 354 kts 260°
2026-04-28 00:35 31.89917 -105.26495 20390 ft 350 kts 260°
2026-04-28 00:35 31.89613 -105.29328 19797 ft 347 kts 260°
2026-04-28 00:35 31.89311 -105.32135 19213 ft 344 kts 260°
2026-04-28 00:36 31.89112 -105.33978 18829 ft 343 kts 260°
2026-04-28 00:36 31.88715 -105.37652 18046 ft 340 kts 260°
2026-04-28 00:36 31.88418 -105.40404 17403 ft 338 kts 260°
2026-04-28 00:36 31.88121 -105.43139 16797 ft 336 kts 260°
2026-04-28 00:37 31.87827 -105.45846 16254 ft 333 kts 260°
2026-04-28 00:37 31.87632 -105.47641 15877 ft 331 kts 260°
2026-04-28 00:37 31.87445 -105.50341 15318 ft 331 kts 265°
2026-04-28 00:37 31.87425 -105.53959 14575 ft 329 kts 267°
2026-04-28 00:38 31.87438 -105.55743 14215 ft 329 kts 267°
2026-04-28 00:38 31.87456 -105.58436 13640 ft 328 kts 266°
2026-04-28 00:38 31.87464 -105.61087 13045 ft 327 kts 266°
2026-04-28 00:38 31.87463 -105.63765 12466 ft 326 kts 266°
2026-04-28 00:39 31.87454 -105.66422 11908 ft 324 kts 266°
2026-04-28 00:39 31.87442 -105.69069 11354 ft 322 kts 267°
2026-04-28 00:39 31.87426 -105.71701 10869 ft 319 kts 267°
2026-04-28 00:39 31.87411 -105.74253 10699 ft 307 kts 267°
2026-04-28 00:40 31.87395 -105.76709 10570 ft 294 kts 267°
2026-04-28 00:40 31.87379 -105.79071 10440 ft 282 kts 267°
2026-04-28 00:40 31.87363 -105.81304 10329 ft 271 kts 267°
2026-04-28 00:40 31.87347 -105.83482 10215 ft 262 kts 266°
2026-04-28 00:41 31.87330 -105.85591 10099 ft 253 kts 266°
2026-04-28 00:41 31.87314 -105.87630 9998 ft 244 kts 266°
2026-04-28 00:41 31.87299 -105.89596 9904 ft 238 kts 266°
2026-04-28 00:41 31.87266 -105.91533 9753 ft 236 kts 265°
2026-04-28 00:42 31.87199 -105.93460 9573 ft 236 kts 265°
2026-04-28 00:42 31.87126 -105.95387 9394 ft 236 kts 264°
2026-04-28 00:42 31.87055 -105.97294 9239 ft 236 kts 265°
2026-04-28 00:42 31.86985 -105.99206 9071 ft 232 kts 265°
2026-04-28 00:43 31.86916 -106.01094 8878 ft 229 kts 265°
2026-04-28 00:43 31.86848 -106.02944 8723 ft 224 kts 265°
2026-04-28 00:43 31.86783 -106.04758 8562 ft 220 kts 265°
2026-04-28 00:43 31.86718 -106.06549 8415 ft 218 kts 265°
2026-04-28 00:44 31.86653 -106.08327 8257 ft 216 kts 265°
2026-04-28 00:44 31.86590 -106.10063 8135 ft 208 kts 264°
2026-04-28 00:44 31.86529 -106.11717 8005 ft 204 kts 265°
2026-04-28 00:44 31.86511 -106.13399 7778 ft 207 kts 268°
2026-04-28 00:45 31.86557 -106.15103 7570 ft 210 kts 270°
2026-04-28 00:45 31.86608 -106.16841 7346 ft 215 kts 269°
2026-04-28 00:45 31.86656 -106.18608 7108 ft 217 kts 269°
2026-04-28 00:45 31.86704 -106.20380 6853 ft 215 kts 269°
2026-04-28 00:46 31.86751 -106.22107 6613 ft 207 kts 268°
2026-04-28 00:46 31.86794 -106.23782 6376 ft 202 kts 269°
2026-04-28 00:46 31.86834 -106.25418 6113 ft 197 kts 269°
2026-04-28 00:46 31.86874 -106.27014 5876 ft 193 kts 269°
2026-04-28 00:47 31.86912 -106.28569 5632 ft 187 kts 267°
2026-04-28 00:47 31.86793 -106.30037 5420 ft 174 kts 253°
2026-04-28 00:47 31.86299 -106.31248 5260 ft 160 kts 232°
2026-04-28 00:47 31.85658 -106.32263 5094 ft 152 kts 232°
2026-04-28 00:48 31.85002 -106.33203 4919 ft 146 kts 232°
2026-04-28 00:48 31.84362 -106.34101 4726 ft 146 kts 232°
2026-04-28 00:48 31.83704 -106.35022 4509 ft 149 kts 235°
2026-04-28 00:48 31.83039 -106.35954 4275 ft 146 kts 232°
2026-04-28 00:49 31.82370 -106.36893 4030 ft 153 kts 233°
2026-04-28 00:49 31.81690 -106.37840 3957 ft 147 kts 233°
2026-04-28 00:49 31.81051 -106.38735 3957 ft 148 kts 231°
2026-04-28 00:49 31.80507 -106.39498 3948 ft 64 kts 229°
2026-04-28 00:50 31.80357 -106.39585 3948 ft 14 kts 180°
2026-04-28 00:50 31.80256 -106.39583 3946 ft 14 kts 179°
2026-04-28 00:50 31.80199 -106.39580 3946 ft 5 kts 169°
2026-04-28 00:50 31.80153 -106.39553 3946 ft 11 kts 133°
2026-04-28 00:51 31.80097 -106.39485 3946 ft 10 kts 149°
2026-04-28 00:51 31.80054 -106.39466 3946 ft 0 kts 162°
2026-04-28 00:51 31.80052 -106.39465 3946 ft 1 kts 162°
2026-04-28 00:51 31.80050 -106.39464 3946 ft 0 kts 162°